Weather History for Middleton, WI

Change the Weather History Date:

Wednesday, February 5, 2014

  Actual Average (KMSN) Record (KMSN)
Temperature  
Mean Temperature 11 °F 20 °F  
Max Temperature 19 °F 28 °F 54 °F (1946)
Min Temperature 3 °F 13 °F -21 °F (1936)
Degree Days  
Heating Degree Days 54 45  
Month to date heating degree days 225  
Since 1 July heating degree days 4538  
Cooling Degree Days 0 0  
Month to date cooling degree days 0  
Year to date cooling degree days 0  
Moisture  
Dew Point 7 °F    
Average Humidity 70    
Maximum Humidity 82    
Minimum Humidity 57    
Precipitation  
Precipitation 0.00 in 0.04 in 0.64 in (1953)
Month to date precipitation 0.21  
Year to date precipitation 1.44  
Snow  
Snow 0.00 in 0.40 in 5.00 in (1974)
Month to date snowfall 2.1  
Since 1 July snowfall 32.6  
Snow Depth -    
Sea Level Pressure  
Sea Level Pressure 30.30 in    
Wind  
Wind Speed 12 mph (NNW)    
Max Wind Speed 15 mph    
Max Gust Speed 20 mph    
Visibility 8 miles    
Events      
T = Trace of Precipitation, MM = Missing Value Source: NWS Daily Summary

Daily Weather History Graph

Daily Weather History Graph

Search for Another Location

Airport:

Trip Planner

Search our weather history database for the weather conditions in past years. The results will help you decide how hot, cold, wet, or windy it might be!

Date:

Astronomy

Feb. 05, 2014 Rise Set
Actual Time 7:08 AM CST 5:15 PM CST
Civil Twilight 6:39 AM CST 5:45 PM CST
Nautical Twilight 6:05 AM CST 6:19 PM CST
Astronomical Twilight 5:32 AM CST 6:52 PM CST
Moon 10:12 AM CST (2/5) No Moon Set
Length of Visible Light 11h 06m
Length of Day
10h 07m
Waxing Crescent, 39% of the Moon is Illuminated
Feb 5
Waxing Crescent
Feb 6
First Quarter
Feb 14
Full
Feb 22
Last Quarter
Mar 1
New

Hourly Weather History & Observations

Time (CST) Temp. Windchill Dew Point Humidity Pressure Visibility Wind Dir Wind Speed Gust Speed Precip Events Conditions
12:15 AM 18.1 °F 3.9 °F 11.7 °F 76% 30.19 in 2.0 mi NNE 15.0 mph - N/A   Overcast
12:35 AM 18.1 °F 3.9 °F 11.7 °F 76% 30.19 in 2.5 mi North 15.0 mph - N/A   Overcast
12:55 AM 18.5 °F 4.9 °F 11.1 °F 73% 30.18 in 4.0 mi North 13.8 mph - N/A   Overcast
1:15 AM 18.5 °F 4.9 °F 10.8 °F 72% 30.18 in 5.0 mi North 13.8 mph - N/A   Overcast
1:35 AM 18.3 °F 4.1 °F 9.7 °F 69% 30.17 in 5.0 mi North 15.0 mph - N/A   Overcast
1:55 AM 18.1 °F 5.0 °F 10.2 °F 71% 30.17 in 4.0 mi North 12.7 mph - N/A   Overcast
2:15 AM 17.6 °F 3.7 °F 11.8 °F 78% 30.18 in 4.0 mi North 13.8 mph - N/A   Overcast
2:35 AM 17.2 °F 3.9 °F 12.2 °F 81% 30.18 in 2.5 mi North 12.7 mph - N/A   Overcast
2:55 AM 17.1 °F 3.6 °F 12.2 °F 81% 30.17 in 3.0 mi North 12.7 mph 17.3 mph N/A   Overcast
3:15 AM 17.1 °F 4.3 °F 12.0 °F 81% 30.17 in 3.0 mi North 11.5 mph - N/A   Overcast
3:35 AM 16.7 °F 2.6 °F 12.0 °F 82% 30.17 in 2.5 mi North 13.8 mph - N/A   Overcast
3:55 AM 16.7 °F 3.2 °F 12.2 °F 82% 30.18 in 2.0 mi North 12.7 mph 18.4 mph N/A   Overcast
4:15 AM 16.7 °F 3.2 °F 12.2 °F 82% 30.18 in 2.0 mi North 12.7 mph - N/A   Overcast
4:35 AM 16.7 °F 2.6 °F 12.2 °F 82% 30.18 in 2.0 mi North 13.8 mph - N/A   Overcast
4:55 AM 16.7 °F 2.0 °F 12.0 °F 82% 30.17 in 2.5 mi North 15.0 mph - N/A   Overcast
5:15 AM 16.5 °F 1.8 °F 11.7 °F 81% 30.17 in 4.0 mi North 15.0 mph 18.4 mph N/A   Overcast
5:35 AM 16.5 °F 2.4 °F 11.1 °F 79% 30.18 in 5.0 mi North 13.8 mph 18.4 mph N/A   Overcast
5:55 AM 16.3 °F 3.4 °F 10.4 °F 77% 30.20 in 10.0 mi North 11.5 mph 18.4 mph N/A   Overcast
6:15 AM 16.2 °F 3.2 °F 10.4 °F 78% 30.20 in 10.0 mi North 11.5 mph 18.4 mph N/A   Overcast
6:35 AM 15.8 °F 2.1 °F 10.2 °F 79% 30.20 in 10.0 mi North 12.7 mph 19.6 mph N/A   Overcast
6:55 AM 15.8 °F 2.1 °F 10.2 °F 79% 30.22 in 7.0 mi North 12.7 mph - N/A   Overcast
7:15 AM 15.6 °F 1.2 °F 9.9 °F 78% 30.23 in 3.0 mi North 13.8 mph - N/A   Overcast
7:35 AM 15.6 °F 2.5 °F 10.4 °F 80% 30.24 in 1.5 mi North 11.5 mph - N/A   Overcast
7:55 AM 15.4 °F 1.0 °F 10.4 °F 80% 30.25 in 1.8 mi North 13.8 mph - N/A   Overcast
8:15 AM 15.6 °F 1.8 °F 10.4 °F 80% 30.27 in 1.5 mi North 12.7 mph - N/A   Overcast
8:35 AM 15.8 °F 2.1 °F 10.4 °F 79% 30.27 in 2.0 mi North 12.7 mph - N/A   Overcast
8:55 AM 15.8 °F 1.4 °F 9.5 °F 76% 30.28 in 4.0 mi North 13.8 mph - N/A   Overcast
9:15 AM 16.2 °F 3.2 °F 9.3 °F 74% 30.28 in 5.0 mi North 11.5 mph - N/A   Overcast
9:35 AM 16.3 °F 4.9 °F 9.0 °F 73% 30.30 in 5.0 mi North 9.2 mph - N/A   Overcast
9:55 AM 16.7 °F 5.3 °F 8.6 °F 70% 30.30 in 10.0 mi North 9.2 mph - N/A   Overcast
10:15 AM 17.4 °F 3.5 °F 7.5 °F 65% 30.30 in 10.0 mi North 13.8 mph - N/A   Scattered Clouds
10:35 AM 17.8 °F 4.6 °F 7.5 °F 64% 30.31 in 10.0 mi North 12.7 mph - N/A   Scattered Clouds
10:55 AM 18.7 °F 6.3 °F 8.1 °F 63% 30.32 in 10.0 mi North 11.5 mph - N/A   Scattered Clouds
11:15 AM 18.5 °F 6.8 °F 7.7 °F 63% 30.32 in 10.0 mi North 10.4 mph - N/A   Mostly Cloudy
11:35 AM 18.1 °F 5.6 °F 7.5 °F 63% 30.31 in 10.0 mi North 11.5 mph - N/A   Clear
11:55 AM 18.5 °F 6.8 °F 7.3 °F 62% 30.31 in 10.0 mi NNW 10.4 mph - N/A   Clear
12:15 PM 19.0 °F 6.8 °F 7.7 °F 61% 30.31 in 10.0 mi NNW 11.5 mph - N/A   Scattered Clouds
12:35 PM 19.2 °F 7.7 °F 7.3 °F 60% 30.31 in 10.0 mi North 10.4 mph - N/A   Clear
12:55 PM 19.4 °F 9.5 °F 7.7 °F 60% 30.31 in 10.0 mi North 8.1 mph - N/A   Clear
1:15 PM 19.4 °F 7.9 °F 7.7 °F 60% 30.31 in 10.0 mi NNW 10.4 mph - N/A   Scattered Clouds
1:35 PM 19.4 °F 7.9 °F 7.2 °F 59% 30.31 in 10.0 mi North 10.4 mph - N/A   Scattered Clouds
1:55 PM 19.9 °F 11.1 °F 7.3 °F 58% 30.32 in 10.0 mi NNW 6.9 mph - N/A   Scattered Clouds
2:15 PM 19.9 °F 10.1 °F 7.5 °F 59% 30.32 in 10.0 mi NW 8.1 mph - N/A   Scattered Clouds
2:35 PM 19.9 °F 8.6 °F 7.2 °F 58% 30.33 in 10.0 mi NW 10.4 mph - N/A   Clear
2:55 PM 19.2 °F 7.7 °F 6.1 °F 57% 30.34 in 10.0 mi NW 10.4 mph - N/A   Clear
3:15 PM 18.7 °F 7.0 °F 6.1 °F 58% 30.35 in 10.0 mi NW 10.4 mph - N/A   Clear
3:35 PM 18.3 °F 7.3 °F 6.6 °F 60% 30.35 in 10.0 mi NW 9.2 mph - N/A   Scattered Clouds
3:55 PM 17.6 °F 7.3 °F 6.1 °F 61% 30.35 in 10.0 mi NW 8.1 mph - N/A   Scattered Clouds
4:15 PM 17.2 °F 5.2 °F 5.9 °F 61% 30.36 in 10.0 mi NW 10.4 mph - N/A   Clear
4:35 PM 16.7 °F 6.2 °F 5.4 °F 61% 30.37 in 10.0 mi NW 8.1 mph - N/A   Clear
4:55 PM 16.0 °F 6.3 °F 5.7 °F 64% 30.37 in 10.0 mi NW 6.9 mph - N/A   Clear
5:15 PM 15.8 °F 7.2 °F 5.9 °F 65% 30.38 in 10.0 mi WNW 5.8 mph - N/A   Scattered Clouds
5:35 PM 15.4 °F 6.8 °F 5.9 °F 66% 30.38 in 10.0 mi WNW 5.8 mph - N/A   Overcast
5:55 PM 14.4 °F 4.3 °F 4.8 °F 66% 30.39 in 10.0 mi WNW 6.9 mph - N/A   Mostly Cloudy
6:15 PM 13.8 °F 2.7 °F 3.7 °F 64% 30.40 in 10.0 mi NW 8.1 mph - N/A   Clear
6:35 PM 13.1 °F 1.8 °F 3.2 °F 65% 30.40 in 10.0 mi NW 8.1 mph - N/A   Clear
6:55 PM 12.4 °F 0.9 °F 2.3 °F 64% 30.40 in 10.0 mi NW 8.1 mph - N/A   Clear
7:15 PM 11.8 °F 1.3 °F 1.8 °F 64% 30.39 in 10.0 mi NW 6.9 mph - N/A   Clear
7:35 PM 10.9 °F 0.2 °F 1.4 °F 65% 30.39 in 10.0 mi NW 6.9 mph - N/A   Clear
7:55 PM 7.9 °F -3.5 °F -0.4 °F 69% 30.40 in 10.0 mi WNW 6.9 mph - N/A   Clear
8:15 PM 8.6 °F -1.3 °F 0.7 °F 70% 30.40 in 10.0 mi West 5.8 mph - N/A   Clear
8:30 PM 7.7 °F -3.7 °F 0.1 °F 71% 30.41 in 10.0 mi WNW 6.9 mph - N/A   Clear
8:55 PM 8.2 °F -3.0 °F 0.7 °F 71% 30.41 in 10.0 mi WNW 6.9 mph - N/A   Scattered Clouds
9:15 PM 6.6 °F -5.0 °F 0.1 °F 75% 30.42 in 10.0 mi West 6.9 mph - N/A   Clear
9:35 PM 6.3 °F -4.1 °F 0.1 °F 76% 30.42 in 10.0 mi WNW 5.8 mph - N/A   Clear
9:55 PM 6.4 °F -6.3 °F 0.3 °F 76% 30.41 in 10.0 mi WNW 8.1 mph - N/A   Clear
10:15 PM 5.7 °F -6.1 °F -0.4 °F 76% 30.41 in 10.0 mi WNW 6.9 mph - N/A   Clear
10:35 PM 5.0 °F -4.1 °F -1.3 °F 75% 30.41 in 10.0 mi WNW 4.6 mph - N/A   Clear
10:55 PM 4.6 °F -6.0 °F -1.7 °F 75% 30.41 in 10.0 mi WNW 5.8 mph - N/A   Clear
11:15 PM 4.1 °F -9.2 °F -3.1 °F 72% 30.41 in 10.0 mi NW 8.1 mph - N/A   Clear
11:35 PM 3.6 °F -8.7 °F -3.8 °F 71% 30.41 in 10.0 mi NW 6.9 mph - N/A   Clear
11:55 PM 3.0 °F -6.4 °F -4.2 °F 72% 30.41 in 10.0 mi WNW 4.6 mph - N/A   Scattered Clouds